This is the latest recevied weather packets stored in our database for station/object K7ZQU-7. If no packets are shown the sender has not sent any weather packets the latest 10 day(s).
| Time | Temp. | Humidity | Pressure | Rain* | Wind** | Luminosity | Snow |
|---|---|---|---|---|---|---|---|
| 1777997237 | 11.11° C | 81% | 1013.3 hPa | 0 mm | 0.89 m/s, 308° | - | - |
| 1777996939 | 10.56° C | 81% | 1013.3 hPa | 0 mm | 0.45 m/s, 305° | - | - |
| 1777996640 | 10.56° C | 81% | 1013.3 hPa | 0 mm | 1.34 m/s, 311° | - | - |
| 1777996341 | 10.56° C | 83% | 1013.3 hPa | 0 mm | 0 m/s | - | - |
| 1777996039 | 10° C | 85% | 1013.2 hPa | 0 mm | 0.89 m/s, 284° | - | - |
| 1777995740 | 9.44° C | 85% | 1013.2 hPa | 0 mm | 1.79 m/s, 238° | - | - |
| 1777995441 | 9.44° C | 85% | 1013.1 hPa | 0 mm | 2.24 m/s, 270° | - | - |
| 1777994843 | 9.44° C | 86% | 1013 hPa | 0 mm | 0.45 m/s, 288° | - | - |
| 1777994541 | 8.89° C | 87% | 1013 hPa | 0 mm | 1.34 m/s, 269° | - | - |
| 1777994242 | 8.89° C | 88% | 1013 hPa | 0 mm | 0.45 m/s, 308° | - | - |
| 1777993644 | 8.89° C | 88% | 1013 hPa | 0 mm | 0.89 m/s, 359° | - | - |
| 1777993346 | 8.89° C | 89% | 1013 hPa | 0 mm | 0.89 m/s, 278° | - | - |
| 1777993044 | 8.33° C | 89% | 1013 hPa | 0 mm | 0.89 m/s, 297° | - | - |
| 1777992745 | 8.33° C | 89% | 1013 hPa | 0 mm | 1.34 m/s, 330° | - | - |
| 1777992445 | 8.33° C | 91% | 1012.8 hPa | 0 mm | 0.45 m/s, 308° | - | - |
| 1777992147 | 8.33° C | 91% | 1013 hPa | 0 mm | 0.45 m/s, 311° | - | - |
| 1777991847 | 8.33° C | 92% | 1012.8 hPa | 0 mm | 0.45 m/s, 304° | - | - |
| 1777991546 | 8.33° C | 92% | 1013 hPa | 0 mm | 0 m/s | - | - |
| 1777991246 | 8.33° C | 93% | 1012.8 hPa | 0 mm | 1.34 m/s, 323° | - | - |
| 1777990649 | 8.33° C | 93% | 1012.7 hPa | 0 mm | 1.79 m/s, 312° | - | - |
| 1777990048 | 8.33° C | 93% | 1012.7 hPa | 0 mm | 0.45 m/s, 198° | - | - |
| 1777989749 | 8.33° C | 93% | 1012.6 hPa | 0 mm | 0 m/s | - | - |
| 1777989450 | 7.78° C | 93% | 1012.6 hPa | 0 mm | 0.45 m/s, 311° | - | - |
| 1777989151 | 8.33° C | 93% | 1012.6 hPa | 0 mm | 1.79 m/s, 305° | - | - |
| 1777988852 | 8.33° C | 92% | 1012.6 hPa | 0 mm | 0.89 m/s, 271° | - | - |
* Rain latest hour (hover to see other rain measurements)
** Current wind speed in m/s (hover to see current wind gust speed)